Weather History for Arbor Vitae, WI

Change the Weather History Date:

Thursday, October 11, 2012

  Actual Average Record
Temperature  
Mean Temperature 37 °F -  
Max Temperature 42 °F 55 °F 82 °F (1943)
Min Temperature 32 °F 35 °F 19 °F (1987)
Degree Days  
Heating Degree Days 28    
Moisture  
Dew Point 30 °F    
Average Humidity 78    
Maximum Humidity 93    
Minimum Humidity 49    
Precipitation  
Precipitation 0.00 in - - ()
Sea Level Pressure  
Sea Level Pressure 30.01 in    
Wind  
Wind Speed 5 mph (NW)    
Max Wind Speed 17 mph    
Max Gust Speed 26 mph    
Visibility 10 miles    
Events Rain , Snow    
Averages and records for this station are not official NWS values.
T = Trace of Precipitation, MM = Missing Value Source: NWS Daily Summary

Daily Weather History Graph

Daily Weather History Graph

Search for Another Location

Airport:

Trip Planner

Search our weather history database for the weather conditions in past years. The results will help you decide how hot, cold, wet, or windy it might be!

Date:

Astronomy

Oct. 11, 2012 Rise Set
Actual Time 7:11 AM CDT 6:19 PM CDT
Civil Twilight 6:41 AM CDT 6:49 PM CDT
Nautical Twilight 6:06 AM CDT 7:23 PM CDT
Astronomical Twilight 5:31 AM CDT 7:58 PM CDT
Moon 2:37 AM CDT (10/11) 4:06 PM CDT (10/11)
Length of Visible Light 12h 08m
Length of Day
11h 08m
Waning Crescent, 18% of the Moon is Illuminated
Oct 11
Waning Crescent
Oct 15
New
Oct 21
First Quarter
Oct 29
Full
Nov 6
Last Quarter

Hourly Weather History & Observations

Time (CDT) Temp. Windchill Dew Point Humidity Pressure Visibility Wind Dir Wind Speed Gust Speed Precip Events Conditions
12:15 AM 35.6 °F 31.7 °F 30.2 °F 81% 29.94 in 10.0 mi SW 4.6 mph - N/A Rain Light Rain
12:35 AM 37.4 °F - 30.2 °F 75% 29.94 in 10.0 mi Calm Calm - N/A Rain Light Rain
12:55 AM 35.6 °F - 32.0 °F 87% 29.93 in 7.0 mi Calm Calm - N/A Rain Light Rain
1:15 AM 35.6 °F - 32.0 °F 87% 29.93 in 7.0 mi Calm Calm - N/A Snow Light Snow
1:35 AM 35.6 °F 32.8 °F 33.8 °F 93% 29.91 in 10.0 mi NE 3.5 mph - N/A   Mostly Cloudy
1:55 AM 35.6 °F - 33.8 °F 93% 29.91 in 10.0 mi Calm Calm - N/A   Overcast
2:15 AM 35.6 °F 32.8 °F 33.8 °F 93% 29.89 in 10.0 mi NE 3.5 mph - N/A   Overcast
2:35 AM 35.6 °F - 33.8 °F 93% 29.88 in 10.0 mi Calm Calm - N/A   Overcast
2:55 AM 35.6 °F - 33.8 °F 93% 29.86 in 10.0 mi Calm Calm - N/A   Overcast
3:15 AM 35.6 °F 30.7 °F 33.8 °F 93% 29.85 in 10.0 mi SE 5.8 mph - N/A   Overcast
3:35 AM 35.6 °F - 33.8 °F 93% 29.84 in 10.0 mi Calm Calm - N/A   Overcast
3:55 AM 35.6 °F - 33.8 °F 93% 29.84 in 10.0 mi Calm Calm - N/A   Overcast
4:15 AM 35.6 °F 32.8 °F 33.8 °F 93% 29.84 in 10.0 mi North 3.5 mph - N/A   Overcast
4:35 AM 35.6 °F - 33.8 °F 93% 29.84 in 10.0 mi Calm Calm - N/A   Overcast
4:55 AM 35.6 °F - 33.8 °F 93% 29.83 in 10.0 mi Calm Calm - N/A   Overcast
5:35 AM 35.6 °F 31.7 °F 33.8 °F 93% 29.84 in 10.0 mi North 4.6 mph - N/A   Mostly Cloudy
5:55 AM 35.6 °F 32.8 °F 33.8 °F 93% 29.83 in 7.0 mi North 3.5 mph - N/A   Mostly Cloudy
6:15 AM 35.6 °F 30.7 °F 33.8 °F 93% 29.85 in 7.0 mi NNW 5.8 mph - N/A   Overcast
6:35 AM 35.6 °F 29.9 °F 33.8 °F 93% 29.86 in 7.0 mi NNW 6.9 mph - N/A   Overcast
6:55 AM 35.6 °F 29.2 °F 33.8 °F 93% 29.87 in 7.0 mi North 8.1 mph - N/A   Overcast
7:35 AM 35.6 °F 31.7 °F 33.8 °F 93% 29.87 in 5.0 mi NNW 4.6 mph - N/A Rain Light Rain
7:55 AM 35.6 °F 30.7 °F 33.8 °F 93% 29.88 in 7.0 mi NNW 5.8 mph - N/A   Overcast
8:15 AM 35.6 °F 31.7 °F 33.8 °F 93% 29.90 in 10.0 mi NW 4.6 mph - N/A   Overcast
8:35 AM 35.6 °F 29.9 °F 33.8 °F 93% 29.91 in 10.0 mi NW 6.9 mph - N/A   Overcast
8:55 AM 35.6 °F 29.2 °F 33.8 °F 93% 29.93 in 10.0 mi NW 8.1 mph - N/A   Overcast
9:35 AM 35.6 °F 30.7 °F 32.0 °F 87% 29.95 in 10.0 mi NW 5.8 mph - N/A   Overcast
9:55 AM 35.6 °F 27.1 °F 32.0 °F 87% 29.96 in 10.0 mi NW 12.7 mph 17.3 mph N/A   Overcast
10:15 AM 35.6 °F 28.0 °F 32.0 °F 87% 29.98 in 10.0 mi NNW 10.4 mph 17.3 mph N/A   Overcast
10:35 AM 37.4 °F 30.3 °F 32.0 °F 81% 29.98 in 10.0 mi NW 10.4 mph 19.6 mph N/A   Mostly Cloudy
10:55 AM 37.4 °F 30.3 °F 32.0 °F 81% 29.99 in 10.0 mi WNW 10.4 mph 16.1 mph N/A   Scattered Clouds
11:15 AM 41.0 °F 34.7 °F 32.0 °F 70% 30.00 in 10.0 mi NW 10.4 mph 19.6 mph N/A   Scattered Clouds
11:35 AM 39.2 °F 31.2 °F 30.2 °F 70% 30.00 in 10.0 mi NW 13.8 mph 23.0 mph N/A   Mostly Cloudy
11:55 AM 41.0 °F 34.3 °F 32.0 °F 70% 30.01 in 10.0 mi NW 11.5 mph 17.3 mph N/A   Overcast
12:15 PM 37.4 °F 29.3 °F 30.2 °F 75% 30.02 in 10.0 mi NW 12.7 mph 20.7 mph N/A   Mostly Cloudy
12:35 PM 37.4 °F 29.3 °F 28.4 °F 70% 30.03 in 10.0 mi WNW 12.7 mph 20.7 mph N/A   Scattered Clouds
12:55 PM 37.4 °F 29.3 °F 28.4 °F 70% 30.03 in 10.0 mi NW 12.7 mph 19.6 mph N/A   Scattered Clouds
1:15 PM 37.4 °F 29.8 °F 26.6 °F 65% 30.03 in 10.0 mi WNW 11.5 mph 18.4 mph N/A   Scattered Clouds
1:35 PM 41.0 °F 34.3 °F 28.4 °F 61% 30.04 in 10.0 mi WNW 11.5 mph 19.6 mph N/A   Scattered Clouds
1:55 PM 41.0 °F 32.5 °F 28.4 °F 61% 30.04 in 10.0 mi NW 17.3 mph 20.7 mph N/A   Mostly Cloudy
2:15 PM 41.0 °F 33.5 °F 26.6 °F 57% 30.05 in 10.0 mi WNW 13.8 mph 19.6 mph N/A   Mostly Cloudy
2:35 PM 41.0 °F 33.9 °F 24.8 °F 53% 30.06 in 10.0 mi WNW 12.7 mph 25.3 mph N/A   Mostly Cloudy
3:15 PM 41.0 °F 34.7 °F 24.8 °F 53% 30.07 in 10.0 mi NW 10.4 mph 17.3 mph N/A   Mostly Cloudy
3:35 PM 42.8 °F 34.8 °F 24.8 °F 49% 30.09 in 10.0 mi WNW 17.3 mph 26.5 mph N/A   Mostly Cloudy
3:55 PM 41.0 °F 34.7 °F 24.8 °F 53% 30.10 in 10.0 mi NW 10.4 mph 19.6 mph N/A   Mostly Cloudy
4:15 PM 41.0 °F 33.5 °F 24.8 °F 53% 30.10 in 10.0 mi NW 13.8 mph 18.4 mph N/A   Scattered Clouds
4:35 PM 41.0 °F 33.1 °F 24.8 °F 53% 30.11 in 10.0 mi NNW 15.0 mph 19.6 mph N/A   Scattered Clouds
4:55 PM 41.0 °F 33.5 °F 24.8 °F 53% 30.12 in 10.0 mi NNW 13.8 mph 21.9 mph N/A   Overcast
5:15 PM 37.4 °F 27.8 °F 24.8 °F 60% 30.13 in 10.0 mi NW 17.3 mph 23.0 mph N/A   Overcast
5:35 PM 37.4 °F 30.8 °F 23.0 °F 56% 30.14 in 10.0 mi NW 9.2 mph 18.4 mph N/A   Overcast
6:35 PM 35.6 °F 31.7 °F 24.8 °F 65% 30.16 in 10.0 mi NW 4.6 mph - N/A   Clear
6:55 PM 35.6 °F 29.2 °F 24.8 °F 65% 30.17 in 10.0 mi NW 8.1 mph - N/A   Clear
7:15 PM 35.6 °F 30.7 °F 26.6 °F 70% 30.19 in 10.0 mi NW 5.8 mph - N/A   Scattered Clouds
7:35 PM 35.6 °F 30.7 °F 26.6 °F 70% 30.19 in 10.0 mi NW 5.8 mph - N/A   Scattered Clouds
8:15 PM 35.6 °F 30.7 °F 26.6 °F 70% 30.21 in 10.0 mi NW 5.8 mph - N/A   Scattered Clouds
8:35 PM 35.6 °F 31.7 °F 28.4 °F 75% 30.22 in 10.0 mi NW 4.6 mph - N/A   Clear
8:55 PM 35.6 °F 31.7 °F 28.4 °F 75% 30.22 in 10.0 mi NW 4.6 mph - N/A   Clear
9:15 PM 33.8 °F 27.7 °F 26.6 °F 75% 30.23 in 10.0 mi NW 6.9 mph - N/A   Clear
10:15 PM 32.0 °F 27.5 °F 26.6 °F 80% 30.25 in 10.0 mi NW 4.6 mph - N/A   Clear
10:35 PM 32.0 °F - 26.6 °F 80% 30.25 in 10.0 mi Calm Calm - N/A   Clear
11:15 PM 32.0 °F 27.5 °F 28.4 °F 87% 30.27 in 10.0 mi NW 4.6 mph - N/A   Clear
11:35 PM 32.0 °F 25.6 °F 28.4 °F 87% 30.27 in 10.0 mi North 6.9 mph - N/A   Scattered Clouds
11:55 PM 32.0 °F 28.7 °F 28.4 °F 87% 30.28 in 10.0 mi NW 3.5 mph - N/A   Scattered Clouds